This is the latest recevied weather packets stored in our database for station/object WD9U. If no packets are shown the sender has not sent any weather packets the latest 10 day(s).
| Time | Temp. | Humidity | Pressure | Rain* | Wind** | Luminosity | Snow |
|---|---|---|---|---|---|---|---|
| 1777480731 | 8.33° C | 38% | 1017.5 hPa | 0 mm | - | 932 W/m² | - |
| 1777480371 | 8.33° C | 38% | 1017.6 hPa | 0 mm | - | 870 W/m² | - |
| 1777480244 | 8.33° C | 37% | 1017.7 hPa | 0 mm | - | 384 W/m² | - |
| 1777480011 | 8.89° C | 38% | 1017.6 hPa | 0 mm | - | 326 W/m² | - |
| 1777479651 | 8.33° C | 41% | 1017.6 hPa | 0 mm | - | 848 W/m² | - |
| 1777479291 | 7.78° C | 41% | 1017.5 hPa | 0 mm | - | 864 W/m² | - |
| 1777478931 | 7.78° C | 42% | 1017.6 hPa | 0 mm | - | 926 W/m² | - |
| 1777478571 | 8.33° C | 44% | 1017.4 hPa | 0 mm | - | 250 W/m² | - |
| 1777478211 | 8.33° C | 44% | 1017.5 hPa | 0 mm | - | 582 W/m² | - |
| 1777477844 | 8.33° C | 44% | 1017.5 hPa | 0 mm | - | 340 W/m² | - |
| 1777477491 | 7.78° C | 46% | 1017.6 hPa | 0 mm | - | 935 W/m² | - |
| 1777477131 | 7.78° C | 46% | 1017.7 hPa | 0 mm | - | 869 W/m² | - |
| 1777476771 | 7.78° C | 45% | 1017.7 hPa | 0 mm | - | 778 W/m² | - |
| 1777476642 | 7.78° C | 48% | 1017.6 hPa | 0 mm | - | 250 W/m² | - |
| 1777476410 | 7.78° C | 48% | 1017.5 hPa | 0 mm | - | 714 W/m² | - |
| 1777476050 | 7.78° C | 49% | 1017.6 hPa | 0 mm | - | 297 W/m² | - |
| 1777475690 | 7.78° C | 50% | 1017.6 hPa | 0 mm | - | 659 W/m² | - |
| 1777475442 | 7.78° C | 50% | 1017.6 hPa | 0 mm | - | 629 W/m² | - |
| 1777475330 | 7.78° C | 51% | 1017.7 hPa | 0 mm | - | 623 W/m² | - |
| 1777474970 | 7.78° C | 51% | 1017.6 hPa | 0 mm | - | 604 W/m² | - |
| 1777474610 | 7.78° C | 54% | 1017.6 hPa | 0 mm | - | 592 W/m² | - |
| 1777474243 | 7.78° C | 51% | 1017.6 hPa | 0 mm | - | 578 W/m² | - |
| 1777473899 | 7.22° C | 56% | 1017.6 hPa | 0 mm | - | 565 W/m² | - |
| 1777473539 | 7.22° C | 56% | 1017.8 hPa | 0 mm | - | 552 W/m² | - |
| 1777473179 | 7.22° C | 58% | 1017.6 hPa | 0 mm | - | 542 W/m² | - |
* Rain latest hour (hover to see other rain measurements)
** Current wind speed in m/s (hover to see current wind gust speed)